GW1540 Weather Reports


time (UTC)temp
C
wind
direction
speed
KPH
gust
KPH
rain 1hr
cm
rain 24hr
cm
rain mn
cm
humidity
%
barometer
mb
20260504180148 14 239 0.0 4.8 0.00 0.00 0.00 67 1017.0
20260504174650 14 207 1.6 4.8 0.00 0.00 0.00 66 1017.0
20260504171701 15 237 1.6 4.8 0.00 0.00 0.00 61 1017.2
20260504150210 17 84 3.2 14.5 0.00 0.00 0.00 55 1017.2
20260504130218 16 173 4.8 11.3 0.00 0.00 0.00 56 1018.2
20260504120207 17 9 1.6 19.3 0.00 0.00 0.00 55 1018.3
20260504080214 15 192 1.6 9.7 0.00 0.00 0.00 57 1018.9
20260504070210 13 246 0.0 3.2 0.00 0.00 0.00 75 1018.6
20260504060219 5 246 0.0 3.2 0.00 0.00 0.00 95 1018.7
20260504050200 0 246 0.0 0.0 0.00 0.00 0.00 93 1018.7
20260504043220 0 246 0.0 0.0 0.00 0.00 0.00 92 1018.5
20260504041644 1 246 0.0 0.0 0.00 0.00 0.00 91 1018.5
20260504034721 1 246 0.0 0.0 0.00 0.00 0.00 90 1018.6
20260504033148 2 246 0.0 0.0 0.00 0.00 0.00 90 1018.5
20260504030158 3 246 0.0 0.0 0.00 0.00 0.00 91 1018.6
20260504024657 3 246 0.0 0.0 0.00 0.00 0.00 90 1018.7
20260504021719 4 246 0.0 0.0 0.00 0.00 0.00 92 1018.8
20260504014715 5 246 0.0 0.0 0.00 0.00 0.00 92 1018.9
20260504013159 5 246 0.0 0.0 0.00 0.00 0.00 92 1018.9
20260504010210 5 246 0.0 0.0 0.00 0.00 0.00 91 1019.1
20260504004648 5 246 0.0 0.0 0.00 0.00 0.00 91 1019.2
20260504001714 5 246 0.0 0.0 0.00 0.00 0.00 93 1019.4
20260503234718 4 246 0.0 0.0 0.00 0.00 0.00 92 1019.5
20260503233157 4 246 0.0 0.0 0.00 0.00 0.00 91 1019.6
20260503231656 4 246 0.0 0.0 0.00 0.00 0.00 92 1019.7
20260503230146 4 246 0.0 0.0 0.00 0.00 0.00 91 1019.9
20260503223217 4 246 0.0 0.0 0.00 0.00 0.00 89 1020.1
20260503220249 4 246 0.0 0.0 0.00 0.00 0.00 89 1020.0
20260503214708 4 246 0.0 0.0 0.00 0.00 0.00 89 1019.9
20260503213154 5 246 0.0 0.0 0.00 0.00 0.00 89 1019.9
20260503210219 5 246 0.0 0.0 0.00 0.00 0.00 86 1020.0
20260503203210 6 246 0.0 0.0 0.00 0.00 0.00 84 1020.0
20260503200210 8 246 0.0 3.2 0.00 0.00 0.00 78 1019.8
20260503193216 10 246 1.6 4.8 0.00 0.00 0.00 74 1019.4
20260503190204 11 246 1.6 4.8 0.00 0.00 0.00 70 1019.4
20260503183211 11 246 1.6 4.8 0.00 0.00 0.00 73 1019.3
20260503181646 12 246 1.6 4.8 0.00 0.00 0.00 70 1019.0